Location: Ditterswind
(50.1692°N, 10.6348°E)
Time: 08:09:35
(UTC+00:00)

H-2A R/B - Pass Details

Date: 07 June 2020
Orbit: 577 x 656 km, 98.5° (Epoch: 14 July)

Event Time Altitude Azimuth Distance (km) Brightness Sun altitude
Rises 01:41:24 0° 143° (SE) 2,933 5.3 -10.3°
Reaches altitude 10° 01:43:40 10° 136° (SE) 2,039 4.6 -10.1°
Maximum altitude 01:47:49 41° 67° (ENE) 954 3.6 -9.7°
Drops below altitude 10° 01:52:04 10° 358° (N) 2,078 5.6 -9.3°
Sets 01:54:24 0° 351° (N) 2,997 6.3 -9.1°
